Portada
METAR-TAF:

METAR-TAF

Aeropuertos :

Juigalpa, Nicaragua

latitud: 12-06N, longitud: 085-22W, altitud: 90 m

Observación

El informe se hizo hace 8 horas y 25 minutos, a las 23:00 UTC
Viento 4 kt del este
Temperatura 27°C
Humedad 84%
Presión 1008 hPa
Visibilidad 10 km o más
Cielo nuboso a una altura de 2000 ft, Cumulonimbus.
Nubes dispersas a una altura de 8000 ft

METAR: MNJU 232300Z 09004KT 9999 BKN020CB SCT080 27/24 Q1008 CB/N/NE/E/SE/S/SW

Hora: 01:25 (07:25 UTC)


TAF: falta

Observaciones y pronósticos meteorológicos de más de 4000 aeropuertos (mensajes METAR y TAF).

Los puntos amarillos y rojos representan las estaciones disponibles.

Ponga el ratón en el punto deseado para ver el nombre de la estación.

Haga clic para ver las observaciones y los pronósticos meteorológicos.

Para cambiar el mapa : haga clic en los botones verdes con una cruz de color negro para hacer un zoom, en el botón verde con un guión para alejar o en las flechas verdes para mapas adyacentes.


METAR-TAF: